Location: Ceske Budejovice
(48.9830°N, 14.4670°E)
Time: 02:25:45
(UTC+01:00)

ISS - Pass Details

Date: 23 November 2019
Orbit: 411 x 421 km, 51.6° (Epoch: 12 December)

Event Time Altitude Azimuth Distance (km) Brightness Sun altitude
Rises 19:13:27 0° 244° (WSW) 2,352 1.0 -29.1°
Reaches altitude 10° 19:15:32 10° 243° (WSW) 1,493 -0.3 -29.4°
Enters shadow 19:16:01 14° 242° (WSW) 1,299 -0.6 -29.5°
